User: anonymous   Login
Location: Unspecified
(0.0000°N, 0.0000°E)
Time: 15:33:48
(UTC+00:00)
Language:

X-37B - Orbit

View from above orbital plane
View from above orbital plane
View from above satellite
View from above satellite

Ground track
Ground track

The orbit data is extracted from the following two-line orbital elements,

1 45606U 20029A   20211.10094038 0.00000000  00000-0  00000-0 0    08
2 45606  45.0260 266.6819 0004007  18.0410 341.9586 15.60247705    06
Epoch (UTC): 29 July 2020 02:25:21
Eccentricity: 0.0004007
inclination: 45.0260°
perigee height: 384 km
apogee height: 389 km
right ascension of ascending node: 266.6819°
argument of perigee: 18.0410°
revolutions per day: 15.60247705
mean anomaly at epoch: 341.9586°
orbit number at epoch: 0

The dashed part of the orbit path shows where the satellite is in the earth's shadow,  

DLR